0602100021,1994,06,16,14,5.6
0602100021,1994,06,16,15,5.8
0602100021,1994,06,16,16,5.7
0602100021,1994,06,16,17,5.8
0602100021,1994,06,16,18,5.7
0602100021,1994,06,16,19,4.4
0602100021,1994,06,16,20,3.2
0602100021,1994,06,16,21,3.3
0602100021,1994,06,16,22,3.1
0602100021,1994,06,16,23,2.2
0602100021,1994,06,17,01,2.2
0602100021,1994,06,17,02,1.7
0602100021,1994,06,17,03,1.6
0602100021,1994,06,17,04,1.3
0602100021,1994,06,17,05,1.4
0602100021,1994,06,17,06,1.8
0602100021,1994,06,17,13,5.7
0602100021,1994,06,17,14,7.1
0602100021,1994,06,17,15,7.1
0602100021,1994,06,17,16,7.2
0602100021,1994,06,17,17,7.1
0602100021,1994,06,17,18,6.5
0602100021,1994,06,17,19,4.7
0602100021,1994,06,17,20,3.4
0602100021,1994,06,17,21,3.2
0602100021,1994,06,17,22,1.8
0602100021,1994,06,17,23,1.7
0602100021,1994,06,18,01,2.8
0602100021,1994,06,18,02,2.9
0602100021,1994,06,18,03,2.4
0602100021,1994,06,18,04,1.5
0602100021,1994,06,18,05,2
0602100021,1994,06,18,06,2.1
0602100021,1994,06,18,07,2.9
0602100021,1994,06,18,08,3.4
0602100021,1994,06,18,09,3.9
0602100021,1994,06,18,10,4.5
0602100021,1994,06,18,11,5.3
0602100021,1994,06,18,12,6.4
0602100021,1994,06,18,13,6.9
0602100021,1994,06,18,14,6.7
0602100021,1994,06,18,15,6.8
0602100021,1994,06,18,16,6.7
0602100021,1994,06,18,17,6.4
0602100021,1994,06,18,18,6.1
0602100021,1994,06,18,19,4.3
0602100021,1994,06,18,20,3.7
0602100021,1994,06,18,21,2.8
0602100021,1994,06,18,22,1.3
0602100021,1994,06,18,23,1.1
0602100021,1994,06,19,01,1.4
0602100021,1994,06,19,02,2.2
0602100021,1994,06,19,03,1.9
0602100021,1994,06,19,04,1.2
0602100021,1994,06,19,05,2.4
0602100021,1994,06,19,06,3.3
0602100021,1994,06,19,07,3.7
0602100021,1994,06,19,08,5
0602100021,1994,06,19,09,5.9
0602100021,1994,06,19,10,6
0602100021,1994,06,19,11,6.3
0602100021,1994,06,19,12,7
0602100021,1994,06,19,13,7.2
0602100021,1994,06,19,14,7.8
0602100021,1994,06,19,15,7.6
0602100021,1994,06,19,16,7.2
0602100021,1994,06,19,17,6.9
0602100021,1994,06,19,18,5.5
0602100021,1994,06,19,19,4.3
0602100021,1994,06,19,20,5.1
0602100021,1994,06,19,21,5.6
0602100021,1994,06,19,22,4
0602100021,1994,06,19,23,3.5
0602100021,1994,06,20,01,3
0602100021,1994,06,20,02,1.9
0602100021,1994,06,20,03,0.5
0602100021,1994,06,20,04,0.5
0602100021,1994,06,20,05,0.6
0602100021,1994,06,20,06,1.5
0602100021,1994,06,20,07,2.4
0602100021,1994,06,20,08,3.5
0602100021,1994,06,20,09,4.5
0602100021,1994,06,20,10,5.4
0602100021,1994,06,20,11,5.9
0602100021,1994,06,20,12,6.3
0602100021,1994,06,20,13,7
0602100021,1994,06,20,14,7.4
0602100021,1994,06,20,15,7.5
0602100021,1994,06,20,16,7.2
0602100021,1994,06,20,17,6.4
0602100021,1994,06,20,18,6
0602100021,1994,06,20,19,5.3
0602100021,1994,06,20,20,4.9
0602100021,1994,06,20,21,4.3
0602100021,1994,06,20,22,3.7
0602100021,1994,06,20,23,2.8
0602100021,1994,06,21,00,1.8
0602100021,1994,06,21,01,1.9
0602100021,1994,06,21,02,1.5
0602100021,1994,06,21,03,1.3
0602100021,1994,06,21,05,0.7
0602100021,1994,06,21,06,1.7
0602100021,1994,06,21,07,1.9
0602100021,1994,06,21,08,3.1
0602100021,1994,06,21,09,4.3
0602100021,1994,06,21,10,5.1
0602100021,1994,06,21,11,5.9
0602100021,1994,06,21,12,6.3
0602100021,1994,06,21,13,7.2
0602100021,1994,06,21,14,8.1
0602100021,1994,06,21,15,8.3
0602100021,1994,06,21,16,7.9
0602100021,1994,06,21,17,7.3
0602100021,1994,06,21,18,6.3
0602100021,1994,06,21,19,5
0602100021,1994,06,21,22,4.4
0602100021,1994,06,21,23,3
0602100021,1994,06,22,00,2.6
0602100021,1994,06,22,01,1.7
0602100021,1994,06,22,02,1.5
0602100021,1994,06,22,03,1.2
0602100021,1994,06,22,04,1.2
0602100021,1994,06,22,05,1.1
0602100021,1994,06,22,06,1.5
0602100021,1994,06,22,07,2.6
0602100021,1994,06,22,08,3.2
0602100021,1994,06,22,09,4
0602100021,1994,06,22,10,5.4
0602100021,1994,06,22,11,6.8
0602100021,1994,06,22,12,7.2
0602100021,1994,06,22,13,7.6
0602100021,1994,06,22,14,7.2
0602100021,1994,06,22,15,6.9
0602100021,1994,06,22,16,7.3
0602100021,1994,06,22,17,6.5
0602100021,1994,06,22,18,5.8
0602100021,1994,06,22,19,5.4
0602100021,1994,06,22,20,3.9
0602100021,1994,06,22,21,2.5
0602100021,1994,06,22,22,2.3
0602100021,1994,06,22,23,2.3
0602100021,1994,06,23,00,1.7
0602100021,1994,06,23,01,1.3
0602100021,1994,06,23,02,1.3
0602100021,1994,06,23,03,1.2
0602100021,1994,06,23,05,1
0602100021,1994,06,23,06,1.1
0602100021,1994,06,23,07,1.9
0602100021,1994,06,23,08,2.5
0602100021,1994,06,23,09,3.6
0602100021,1994,06,23,10,4.2
0602100021,1994,06,23,11,4.6
0602100021,1994,06,23,12,4.5
0602100021,1994,06,23,13,4.4
0602100021,1994,06,23,14,4.3
0602100021,1994,06,23,15,5
0602100021,1994,06,23,16,5.3
0602100021,1994,06,23,17,5.1
0602100021,1994,06,23,18,5
0602100021,1994,06,23,19,4.2
0602100021,1994,06,23,20,3.5
0602100021,1994,06,23,21,2.5
0602100021,1994,06,23,22,1.6
0602100021,1994,06,23,23,2.1
0602100021,1994,06,24,00,2.5
0602100021,1994,06,24,01,1.1
0602100021,1994,06,24,02,1.2
0602100021,1994,06,24,03,1.2
0602100021,1994,06,24,05,0.8
0602100021,1994,06,24,06,1.3
0602100021,1994,06,24,07,2.1
0602100021,1994,06,24,08,3.9
0602100021,1994,06,24,09,4.5
0602100021,1994,06,24,10,5.1
0602100021,1994,06,24,11,6
0602100021,1994,06,24,12,6.7
0602100021,1994,06,24,13,6.6
0602100021,1994,06,24,14,6.7
0602100021,1994,06,24,15,6.2
0602100021,1994,06,24,16,6.8
0602100021,1994,06,24,17,5.6
0602100021,1994,06,24,18,5
0602100021,1994,06,24,19,4.7
0602100021,1994,06,24,20,3.7
0602100021,1994,06,24,21,3.1
0602100021,1994,06,24,22,2.2
0602100021,1994,06,24,23,2.8
0602100021,1994,06,25,00,2.1
0602100021,1994,06,25,01,1.3
0602100021,1994,06,25,02,0.9
0602100021,1994,06,25,03,0.6
0602100021,1994,06,25,05,1
0602100021,1994,06,25,06,1.5
0602100021,1994,06,25,07,2
0602100021,1994,06,25,08,2.6
0602100021,1994,06,25,09,3.4
0602100021,1994,06,25,10,5.1
0602100021,1994,06,25,11,5.7
0602100021,1994,06,25,12,5.9
0602100021,1994,06,25,13,6.4
0602100021,1994,06,25,14,7
0602100021,1994,06,25,15,7.8
0602100021,1994,06,25,16,7.9
0602100021,1994,06,25,17,8
0602100021,1994,06,25,18,7.4
0602100021,1994,06,25,19,5.3
0602100021,1994,06,25,20,4.1
0602100021,1994,06,25,21,4
0602100021,1994,06,25,22,3.3
0602100021,1994,06,25,23,2.9
0602100021,1994,06,26,00,3.3
0602100021,1994,06,26,01,2.8
0602100021,1994,06,26,02,2.7
0602100021,1994,06,26,03,3.4
0602100021,1994,06,26,05,3.7
0602100021,1994,06,26,06,3.7
0602100021,1994,06,26,07,3.9
0602100021,1994,06,26,08,4.4
0602100021,1994,06,26,09,4.6
0602100021,1994,06,26,10,4.9
0602100021,1994,06,26,11,5.2
0602100021,1994,06,26,12,5.3
0602100021,1994,06,26,13,5.7
0602100021,1994,06,26,14,6.1
0602100021,1994,06,26,15,5.9
0602100021,1994,06,26,16,5.8
0602100021,1994,06,26,17,5.4
0602100021,1994,06,26,18,4.3
0602100021,1994,06,26,19,2.5
0602100021,1994,06,26,20,1.8
0602100021,1994,06,26,21,2.1
0602100021,1994,06,26,22,2.4
0602100021,1994,06,26,23,2.5
0602100021,1994,06,27,00,1.4
0602100021,1994,06,27,01,2
0602100021,1994,06,27,02,0.6
0602100021,1994,06,27,03,0.6
0602100021,1994,06,27,05,1.4
0602100021,1994,06,27,06,2.1
0602100021,1994,06,27,07,4.1
0602100021,1994,06,27,08,4.6
0602100021,1994,06,27,09,4.9
0602100021,1994,06,27,10,5.8
0602100021,1994,06,27,11,6.2
0602100021,1994,06,27,13,6.2
0602100021,1994,06,27,14,6
0602100021,1994,06,27,15,6.6
0602100021,1994,06,27,16,7.3
0602100021,1994,06,27,17,6.9
0602100021,1994,06,27,18,5.2
0602100021,1994,06,27,19,4.2
0602100021,1994,06,27,20,3
0602100021,1994,06,27,21,1.3
0602100021,1994,06,27,22,2.2
0602100021,1994,06,27,23,3.1
0602100021,1994,06,28,00,3.4
0602100021,1994,06,28,01,2.6
0602100021,1994,06,28,02,1.4
0602100021,1994,06,28,03,1
0602100021,1994,06,28,05,1.2
0602100021,1994,06,28,06,1.4
0602100021,1994,06,28,07,2.1
0602100021,1994,06,28,08,3.7
0602100021,1994,06,28,09,5.2
0602100021,1994,06,28,10,6.4
0602100021,1994,06,28,11,7.3
0602100021,1994,06,28,12,7.1
0602100021,1994,06,28,13,7.3
0602100021,1994,06,28,14,8
0602100021,1994,06,28,15,8.4
0602100021,1994,06,28,16,8.5
0602100021,1994,06,28,17,8
0602100021,1994,06,28,18,6.1
0602100021,1994,06,28,19,5.1
0602100021,1994,06,28,20,4.7
0602100021,1994,06,28,21,5.3
0602100021,1994,06,28,22,4.1
0602100021,1994,06,28,23,3.5
0602100021,1994,06,29,00,2.6
0602100021,1994,06,29,01,1.8
0602100021,1994,06,29,02,1.2
0602100021,1994,06,29,03,1
0602100021,1994,06,29,05,1
0602100021,1994,06,29,06,1.7
0602100021,1994,06,29,07,2.7
0602100021,1994,06,29,08,4.1
0602100021,1994,06,29,09,5.5
0602100021,1994,06,29,12,7.5
0602100021,1994,06,29,13,7.5
0602100021,1994,06,29,14,8
0602100021,1994,06,29,15,8.5
0602100021,1994,06,29,16,7.9
0602100021,1994,06,29,17,6.8
0602100021,1994,06,29,18,5.4
0602100021,1994,06,29,19,5.6
0602100021,1994,06,29,20,5.4
0602100021,1994,06,29,21,4.5
0602100021,1994,06,29,22,3.5
0602100021,1994,06,29,23,3.1
0602100021,1994,06,30,00,2.6
0602100021,1994,06,30,01,1.6
0602100021,1994,06,30,02,1.1
0602100021,1994,06,30,03,1
0602100021,1994,06,30,05,1.4
0602100021,1994,06,30,06,1.8
0602100021,1994,06,30,07,2.2
0602100021,1994,06,30,08,2.8
0602100021,1994,06,30,09,3.7
0602100021,1994,06,30,10,4.7
0602100021,1994,06,30,11,5.8
0602100021,1994,06,30,12,7
0602100021,1994,06,30,13,7.3
0602100021,1994,06,30,14,8.6
0602100021,1994,06,30,15,9.6
0602100021,1994,06,30,16,8.8
0602100021,1994,06,30,17,8.3
0602100021,1994,06,30,18,6.5
0602100021,1994,06,30,19,5
0602100021,1994,06,30,20,3.8
0602100021,1994,06,30,21,1.5
0602100021,1994,06,30,22,1.5
0602100021,1994,06,30,23,2.7
0602100021,1994,07,01,00,2.5
0602100021,1994,07,01,01,1.5
0602100021,1994,07,01,02,1.1
0602100021,1994,07,01,03,0.9
0602100021,1994,07,01,05,1
0602100021,1994,07,01,06,1.4
0602100021,1994,07,01,07,2.3
0602100021,1994,07,01,08,2.9
0602100021,1994,07,01,09,5.2
0602100021,1994,07,01,10,6.8
0602100021,1994,07,01,11,7.4
0602100021,1994,07,01,12,7.6
0602100021,1994,07,01,13,8
0602100021,1994,07,01,14,8.3
0602100021,1994,07,01,15,8.5
0602100021,1994,07,01,16,7.9
0602100021,1994,07,01,17,6.9
0602100021,1994,07,01,18,5.5
0602100021,1994,07,01,19,4.2
0602100021,1994,07,01,20,4.5
0602100021,1994,07,01,21,3.6
0602100021,1994,07,01,22,3.5
0602100021,1994,07,01,23,3.3
0602100021,1994,07,02,00,2.1
0602100021,1994,07,02,01,1.8
0602100021,1994,07,02,02,1.4
0602100021,1994,07,02,03,1.1
0602100021,1994,07,02,05,0.9
0602100021,1994,07,02,06,1.3
0602100021,1994,07,02,07,1.5
0602100021,1994,07,02,08,2.2
0602100021,1994,07,02,09,3.4
0602100021,1994,07,02,10,5.1
0602100021,1994,07,02,11,6.4
0602100021,1994,07,02,12,6.3
0602100021,1994,07,02,13,6.1
0602100021,1994,07,02,14,6.5
0602100021,1994,07,02,15,6.9
0602100021,1994,07,02,16,7.2
0602100021,1994,07,02,17,7.6
0602100021,1994,07,02,18,6.7
0602100021,1994,07,02,19,4.7
0602100021,1994,07,02,20,4.6
0602100021,1994,07,02,21,3.7
0602100021,1994,07,02,22,2.5
0602100021,1994,07,02,23,1.4
0602100021,1994,07,03,00,1.1
0602100021,1994,07,03,01,1.1
0602100021,1994,07,03,02,1.1
0602100021,1994,07,03,03,0.7
0602100021,1994,07,03,05,1.1
0602100021,1994,07,03,06,1.4
0602100021,1994,07,03,07,1.9
0602100021,1994,07,03,08,2.4
0602100021,1994,07,03,09,3
0602100021,1994,07,03,10,3.9
0602100021,1994,07,03,11,5.2
0602100021,1994,07,03,12,5.6
0602100021,1994,07,03,13,6.5
0602100021,1994,07,03,14,6.9
0602100021,1994,07,03,15,6.9
0602100021,1994,07,03,16,6.4
0602100021,1994,07,03,17,3.7
0602100021,1994,07,03,18,3.9
0602100021,1994,07,03,19,3.9
0602100021,1994,07,03,20,3.7
0602100021,1994,07,03,21,4.2
0602100021,1994,07,03,22,2.9
0602100021,1994,07,03,23,2.6
0602100021,1994,07,04,00,2.2
0602100021,1994,07,04,01,1.6
0602100021,1994,07,04,02,1.4
0602100021,1994,07,04,03,1.3
0602100021,1994,07,04,05,1.6
0602100021,1994,07,04,06,1.8
0602100021,1994,07,04,07,2.2
0602100021,1994,07,04,08,2.6
0602100021,1994,07,04,09,3.5
0602100021,1994,07,04,10,4.5
0602100021,1994,07,04,11,5.4
0602100021,1994,07,04,12,6
0602100021,1994,07,04,13,6.1
0602100021,1994,07,04,14,6.1
0602100021,1994,07,04,15,6.2
0602100021,1994,07,04,16,6.2
0602100021,1994,07,04,17,5.5
0602100021,1994,07,04,18,4.7
0602100021,1994,07,04,19,4.5
0602100021,1994,07,04,20,4.8
0602100021,1994,07,04,21,4.9
0602100021,1994,07,04,22,4.1
0602100021,1994,07,04,23,2.9
0602100021,1994,07,05,00,2.1
0602100021,1994,07,05,01,1.7
0602100021,1994,07,05,02,1.3
0602100021,1994,07,05,03,1.2
0602100021,1994,07,05,05,1.3
0602100021,1994,07,05,06,1.7
0602100021,1994,07,05,07,2.1
0602100021,1994,07,05,08,2.5
0602100021,1994,07,05,09,3.6
0602100021,1994,07,05,10,4.8
0602100021,1994,07,05,11,5.5
0602100021,1994,07,05,12,6.5
0602100021,1994,07,05,13,6.7
0602100021,1994,07,05,14,7
0602100021,1994,07,05,15,6.8
0602100021,1994,07,05,16,6.4
0602100021,1994,07,05,17,5.9
0602100021,1994,07,05,18,5
0602100021,1994,07,05,19,3
0602100021,1994,07,05,20,3
0602100021,1994,07,05,21,3.4
0602100021,1994,07,05,22,3.3
0602100021,1994,07,05,23,3.6
0602100021,1994,07,06,00,3.8
0602100021,1994,07,06,01,3.8
0602100021,1994,07,06,02,3.6
0602100021,1994,07,06,03,3.6
0602100021,1994,07,06,05,3.3
0602100021,1994,07,06,06,3.4
0602100021,1994,07,06,07,3.6
0602100021,1994,07,06,08,3.8
0602100021,1994,07,06,09,4.2
0602100021,1994,07,06,10,4.6
0602100021,1994,07,06,11,4.9
0602100021,1994,07,06,12,5.3
0602100021,1994,07,06,13,5.6
0602100021,1994,07,06,14,5.7
0602100021,1994,07,06,15,5.8
0602100021,1994,07,06,16,5.6
0602100021,1994,07,06,17,5
0602100021,1994,07,06,18,4
0602100021,1994,07,06,19,3.1
0602100021,1994,07,06,20,1.4
0602100021,1994,07,06,21,2.6
0602100021,1994,07,06,22,0.9
0602100021,1994,07,06,23,1.6
0602100021,1994,07,07,00,2.4
0602100021,1994,07,07,01,1.3
0602100021,1994,07,07,02,0.5
0602100021,1994,07,07,03,0.5
0602100021,1994,07,07,05,0.8
0602100021,1994,07,07,06,1
0602100021,1994,07,07,07,1.7
0602100021,1994,07,07,08,2.9
0602100021,1994,07,07,09,5
0602100021,1994,07,07,10,5.4
0602100021,1994,07,07,11,6.4
0602100021,1994,07,07,12,6.9
0602100021,1994,07,07,13,7.1
0602100021,1994,07,07,14,7.1
0602100021,1994,07,07,15,7.3
0602100021,1994,07,07,16,7.6
0602100021,1994,07,07,17,7.1
0602100021,1994,07,07,18,6.4
0602100021,1994,07,07,19,5.1
0602100021,1994,07,07,20,2.5
0602100021,1994,07,07,21,1.5
0602100021,1994,07,07,22,2.3
0602100021,1994,07,07,23,2.2
0602100021,1994,07,08,00,2.9
0602100021,1994,07,08,01,0.7
0602100021,1994,07,08,02,1.4
0602100021,1994,07,08,03,0.8
0602100021,1994,07,08,05,1
0602100021,1994,07,08,06,1
0602100021,1994,07,08,07,1.5
0602100021,1994,07,08,08,2.3
0602100021,1994,07,08,09,4.3
0602100021,1994,07,08,10,5.8
0602100021,1994,07,08,11,6.6
0602100021,1994,07,08,12,7.2
0602100021,1994,07,08,13,7.6
0602100021,1994,07,08,14,8
0602100021,1994,07,08,15,7.9
0602100021,1994,07,08,16,7.7
0602100021,1994,07,08,17,7.9
0602100021,1994,07,08,18,7.7
0602100021,1994,07,08,19,5.7
0602100021,1994,07,08,20,5.9
0602100021,1994,07,08,21,4.8
0602100021,1994,07,08,22,3.5
0602100021,1994,07,08,23,3.3
0602100021,1994,07,09,00,3.1
0602100021,1994,07,09,01,2.4
0602100021,1994,07,09,02,1.5
0602100021,1994,07,09,03,1.3
0602100021,1994,07,09,05,0.9
0602100021,1994,07,09,06,1.5
0602100021,1994,07,09,07,2.3
0602100021,1994,07,09,08,2.8
0602100021,1994,07,09,09,5.3
0602100021,1994,07,09,10,7
0602100021,1994,07,09,11,7.5
0602100021,1994,07,09,12,8.1
0602100021,1994,07,09,13,7.5
0602100021,1994,07,09,14,7.4
0602100021,1994,07,09,15,8
0602100021,1994,07,09,16,8.1
0602100021,1994,07,09,17,7.7
0602100021,1994,07,09,18,6
0602100021,1994,07,09,19,4.6
0602100021,1994,07,09,20,4.1
0602100021,1994,07,09,21,4.4
0602100021,1994,07,09,22,3.1
0602100021,1994,07,09,23,2.7
0602100021,1994,07,10,00,2.4
0602100021,1994,07,10,01,1.7
0602100021,1994,07,10,02,1.5
0602100021,1994,07,10,03,1.1
0602100021,1994,07,10,05,1.1
0602100021,1994,07,10,06,1.7
0602100021,1994,07,10,07,2.5
0602100021,1994,07,10,08,3.2
0602100021,1994,07,10,09,4.5
0602100021,1994,07,10,10,5.6
0602100021,1994,07,10,11,5.9
0602100021,1994,07,10,12,6.3
0602100021,1994,07,10,13,6.8
0602100021,1994,07,10,14,7.4
0602100021,1994,07,10,15,7.3
0602100021,1994,07,10,16,7
0602100021,1994,07,10,17,6.3
0602100021,1994,07,10,18,5.1
0602100021,1994,07,10,19,4.4
0602100021,1994,07,10,20,2.9
0602100021,1994,07,10,21,3.9
0602100021,1994,07,10,22,3
0602100021,1994,07,10,23,3.4
0602100021,1994,07,11,00,2.3
0602100021,1994,07,11,01,1.7
0602100021,1994,07,11,02,1.4
0602100021,1994,07,11,03,1.2
0602100021,1994,07,11,05,1.3
0602100021,1994,07,11,06,1.5
0602100021,1994,07,11,07,1.9
0602100021,1994,07,11,08,2.3
0602100021,1994,07,11,09,3.7
0602100021,1994,07,11,10,5.3
0602100021,1994,07,11,11,6.2
0602100021,1994,07,11,12,7.1
0602100021,1994,07,11,13,7.1
0602100021,1994,07,11,14,7.7
0602100021,1994,07,11,15,7.7
0602100021,1994,07,11,16,6.9
0602100021,1994,07,11,17,6.3
0602100021,1994,07,11,18,5.8
0602100021,1994,07,11,19,6.2
0602100021,1994,07,11,20,5.4
0602100021,1994,07,11,21,5
0602100021,1994,07,11,22,3.8
0602100021,1994,07,11,23,3.3
0602100021,1994,07,12,00,1.8
0602100021,1994,07,12,01,1.2
0602100021,1994,07,12,02,1.3
0602100021,1994,07,12,03,0.8
0602100021,1994,07,12,05,0.6
0602100021,1994,07,12,06,1.3
0602100021,1994,07,12,07,1.8
0602100021,1994,07,12,08,3.1
0602100021,1994,07,12,09,4.6
0602100021,1994,07,12,10,6.3
0602100021,1994,07,12,11,8
0602100021,1994,07,12,12,8.3
0602100021,1994,07,12,13,8.6
0602100021,1994,07,12,14,8.6
0602100021,1994,07,12,15,8.5
0602100021,1994,07,12,16,8.2
0602100021,1994,07,12,17,8
0602100021,1994,07,12,18,7.1
0602100021,1994,07,12,19,6.2
0602100021,1994,07,12,20,4.3
0602100021,1994,07,12,21,4
0602100021,1994,07,12,22,4.9
0602100021,1994,07,12,23,4.5
0602100021,1994,07,13,00,3
0602100021,1994,07,13,01,2
0602100021,1994,07,13,02,1.7
0602100021,1994,07,13,03,1.4
0602100021,1994,07,13,05,0.8
0602100021,1994,07,13,06,1.1
0602100021,1994,07,13,07,2.3
0602100021,1994,07,13,08,4
0602100021,1994,07,13,09,4.7
0602100021,1994,07,13,10,5.9
0602100021,1994,07,13,11,6.3
0602100021,1994,07,13,12,7.7
0602100021,1994,07,13,13,8.1
0602100021,1994,07,13,14,7
0602100021,1994,07,13,15,6.5
0602100021,1994,07,13,16,6.4
0602100021,1994,07,13,17,6.6
0602100021,1994,07,13,18,6.9
0602100021,1994,07,13,19,6.9
0602100021,1994,07,13,20,5.5
0602100021,1994,07,13,21,3.5
0602100021,1994,07,13,22,4.1
0602100021,1994,07,13,23,2.4
0602100021,1994,07,14,00,1.9
0602100021,1994,07,14,01,1.8
0602100021,1994,07,14,02,1.4
0602100021,1994,07,14,03,1.3
0602100021,1994,07,14,05,0.9
0602100021,1994,07,14,06,1
0602100021,1994,07,14,07,1.2
0602100021,1994,07,14,08,2.3
0602100021,1994,07,14,09,4.1
0602100021,1994,07,14,10,5.5
0602100021,1994,07,14,11,6.7
0602100021,1994,07,14,12,8.1
0602100021,1994,07,14,13,9
0602100021,1994,07,14,14,8.9
0602100021,1994,07,14,15,8.5
0602100021,1994,07,14,16,6.5
0602100021,1994,07,14,17,5.9
0602100021,1994,07,14,18,5.3
0602100021,1994,07,14,19,5
0602100021,1994,07,14,20,5.2
0602100021,1994,07,14,21,5.3
0602100021,1994,07,14,22,4.6
0602100021,1994,07,14,23,3.4
0602100021,1994,07,15,00,2.5
0602100021,1994,07,15,01,2.3
0602100021,1994,07,15,02,2.1
0602100021,1994,07,15,03,1.4
0602100021,1994,07,15,05,0.8
0602100021,1994,07,15,06,1.2
0602100021,1994,07,15,07,1.8
0602100021,1994,07,15,08,3
0602100021,1994,07,15,09,4.4
0602100021,1994,07,15,10,6.1
0602100021,1994,07,15,11,7.4
0602100021,1994,07,15,12,6.9
0602100021,1994,07,15,13,7.1
0602100021,1994,07,15,14,7.3
0602100021,1994,07,15,15,7.3
0602100021,1994,07,15,16,6.5
0602100021,1994,07,15,17,6.4
0602100021,1994,07,15,18,5.3
0602100021,1994,07,15,19,5.2
0602100021,1994,07,15,20,6.1
0602100021,1994,07,15,21,5.2
0602100021,1994,07,15,22,3.6
0602100021,1994,07,15,23,2.5
0602100021,1994,07,16,00,2.1
0602100021,1994,07,16,01,1.8
0602100021,1994,07,16,02,1.8
0602100021,1994,07,16,03,1.6
0602100021,1994,07,16,05,1.5
0602100021,1994,07,16,06,1.7
0602100021,1994,07,16,07,2.1
0602100021,1994,07,16,08,2.7
0602100021,1994,07,16,09,3.5
0602100021,1994,07,16,10,4.6
0602100021,1994,07,16,11,5.7
0602100021,1994,07,16,12,6.5
0602100021,1994,07,16,13,7.5
0602100021,1994,07,16,14,7.5
0602100021,1994,07,16,15,7.8
0602100021,1994,07,16,16,7.4
0602100021,1994,07,16,17,7
0602100021,1994,07,16,18,5.7
0602100021,1994,07,16,19,4.8
0602100021,1994,07,16,20,5.2
0602100021,1994,07,16,21,3.3
0602100021,1994,07,16,22,2.8
0602100021,1994,07,16,23,3.4
0602100021,1994,07,17,00,3.5
0602100021,1994,07,17,01,3.1
0602100021,1994,07,17,02,1.8
0602100021,1994,07,17,03,1.7
0602100021,1994,07,17,05,2.2
0602100021,1994,07,17,06,2.8
0602100021,1994,07,17,07,4.2
0602100021,1994,07,17,08,5
0602100021,1994,07,17,09,6.3
0602100021,1994,07,17,10,7.6
0602100021,1994,07,17,11,8.1
0602100021,1994,07,17,12,8.1
0602100021,1994,07,17,13,7.7
0602100021,1994,07,17,14,7.5
0602100021,1994,07,17,15,6.5
0602100021,1994,07,17,16,6.7
0602100021,1994,07,17,17,6.4
0602100021,1994,07,17,18,5.4
0602100021,1994,07,17,19,4.3
0602100021,1994,07,17,20,4.8
0602100021,1994,07,17,21,5
0602100021,1994,07,17,22,4.4
0602100021,1994,07,17,23,2.3
0602100021,1994,07,18,00,2
0602100021,1994,07,18,01,1.6
0602100021,1994,07,18,02,1.8
0602100021,1994,07,18,03,1.4
0602100021,1994,07,18,05,1.5
0602100021,1994,07,18,06,1.7
0602100021,1994,07,18,07,2.1
0602100021,1994,07,18,08,3
0602100021,1994,07,18,09,3.8
0602100021,1994,07,18,10,4.9
0602100021,1994,07,18,11,5
0602100021,1994,07,18,12,6.1
0602100021,1994,07,18,13,6.6
0602100021,1994,07,18,14,7
0602100021,1994,07,18,15,7.5
0602100021,1994,07,18,16,7.2
0602100021,1994,07,18,17,6.5
0602100021,1994,07,18,18,6.2
0602100021,1994,07,18,19,5.9
0602100021,1994,07,18,20,5.1
0602100021,1994,07,18,21,3
0602100021,1994,07,18,22,2.4
0602100021,1994,07,18,23,2.1
0602100021,1994,07,19,00,1.8
0602100021,1994,07,19,01,1.7
0602100021,1994,07,19,02,1.7
0602100021,1994,07,19,03,1.5
0602100021,1994,07,19,05,1.1
0602100021,1994,07,19,06,1.5
0602100021,1994,07,19,07,2.1
0602100021,1994,07,19,08,3.2
0602100021,1994,07,19,09,3.4
0602100021,1994,07,19,10,4
0602100021,1994,07,19,11,5
0602100021,1994,07,19,12,5.7
0602100021,1994,07,19,13,7
0602100021,1994,07,19,14,7.4
0602100021,1994,07,19,15,7.6
0602100021,1994,07,19,16,6.7
0602100021,1994,07,19,17,6.5
0602100021,1994,07,19,18,6.4
0602100021,1994,07,19,19,5.9
0602100021,1994,07,19,20,4.2
0602100021,1994,07,19,21,3.4
0602100021,1994,07,19,22,1
0602100021,1994,07,19,23,1.1
0602100021,1994,07,20,00,1.1
0602100021,1994,07,20,01,0.9
0602100021,1994,07,20,02,0.8
0602100021,1994,07,20,03,0.8
0602100021,1994,07,20,05,0.7
0602100021,1994,07,20,06,0.9
0602100021,1994,07,20,07,1.2
0602100021,1994,07,20,08,1.7
0602100021,1994,07,20,09,1.8
0602100021,1994,07,20,10,2.5
0602100021,1994,07,20,11,3.3
0602100021,1994,07,20,12,4.4
0602100021,1994,07,20,13,5.2
0602100021,1994,07,20,14,5.8
0602100021,1994,07,20,15,6.2
0602100021,1994,07,20,16,6.3
0602100021,1994,07,20,17,6.3
0602100021,1994,07,20,18,6.1
0602100021,1994,07,20,19,5.3
0602100021,1994,07,20,20,4.8
0602100021,1994,07,20,21,3.1
0602100021,1994,07,20,22,1.7
0602100021,1994,07,20,23,1.4
0602100021,1994,07,21,00,1.4
0602100021,1994,07,21,01,1.2
0602100021,1994,07,21,02,1.1
0602100021,1994,07,21,03,1.2
0602100021,1994,07,21,05,0.7
0602100021,1994,07,21,06,1.3
0602100021,1994,07,21,07,1.4
0602100021,1994,07,21,08,2.2
0602100021,1994,07,21,09,2.6
0602100021,1994,07,21,10,3.3
0602100021,1994,07,21,11,4
0602100021,1994,07,21,12,4.8
0602100021,1994,07,21,13,6
0602100021,1994,07,21,14,7.6
0602100021,1994,07,21,15,6.9
0602100021,1994,07,21,16,5.8
0602100021,1994,07,21,17,5.4
0602100021,1994,07,21,18,4.4
0602100021,1994,07,21,19,3.8
0602100021,1994,07,21,20,2.8
0602100021,1994,07,21,21,2.4
0602100021,1994,07,21,22,2.4
0602100021,1994,07,21,23,2.2